Weather in Constantsa

Romania     44°08′59″N   28°37′56″E
temp.,
°C
wind,
m/s
gust,
m/s
humid.,
%
clouds,
%
prec.,
mm/h
press.,
hPa
HPBL,
m
20 september, mon
mon2000:00+20nw68473 0.0 1011319
03:00+20nne44630 0.0 1012427
06:00+18ne65740 0.0 1013414
09:00+19e44737 0.0 1013519
12:00+20e44725 0.0 1013645
15:00+20e6673100 0.0 1012627
18:00+20e777497 0.0 1011725
21:00+20ene558099 0.6 1013553
21 september, tue
tue2100:00+19ese558690 3.8 1013477
03:00+16n13139097 6.7 1014622
06:00+15nne121287100 0.5 1016688
09:00+13n91079100 1.6 1019676
12:00+15n996110 0.1 1021998
15:00+17n78495 0.1 10211637
18:00+17n77453 0.0 10201612
21:00+17n56466 0.0 10221093
22 september, wed
wed2200:00+16ne54516 0.0 1022996
03:00+15n544996 0.0 1022953
06:00+14n665566 0.0 1022691
09:00+14n666099 0.0 1021718
12:00+14n445199 0.0 1020910
15:00+16sw1244100 0.0 10181060
18:00+15ssw2155100 0.1 1017572
21:00+16n3446100 0.1 10171344
23 september, thu
thu2300:00+15nnw4548100 0.0 10161503
03:00+15nnw6750100 0.0 10151267
06:00+13n10969100 0.0 10161006
09:00+13n10106976 0.0 1017914
12:00+14n895616 0.0 10171555
15:00+16nnw8946100 0.0 10172314
18:00+16n784883 0.0 10171852
21:00+14n66539 0.0 1018898
24 september, fri
fri2400:00+14nnw33535 0.0 1018571
03:00+13w4457100 0.0 1018376
06:00+13wsw556074 0.0 1017299
09:00+14wsw67565 0.0 1017444
12:00+18wsw784311 0.0 10161112
15:00+21wsw6739100 0.0 10141596
18:00+21w684211 0.0 1014652
21:00+20wsw684498 0.0 1015325